Location: Nairn
(57.5833°N, 3.8667°W)
Time: 12:14:20
(UTC+00:00)

Transit 2A - All Passes

Search period start: 30 November 2020 00:00
Search period end: 10 December 2020 00:00
Orbit: 595 x 964 km, 66.7° (Epoch: 29 November)

Date Brightness Start Highest point End Pass type
(mag) Time Alt. Az. Time Alt. Az. Time Alt. Az.
30 Nov - 00:06:11 10° NW 00:11:44 54° NNE 00:16:41 10° ESE night (unlit)
30 Nov - 01:49:44 10° NW 01:54:59 50° SW 01:59:41 10° SSE night (unlit)
30 Nov - 03:35:23 10° W 03:36:50 11° WSW 03:38:13 10° WSW night (unlit)
30 Nov - 16:37:11 10° SSE 16:42:10 26° ESE 16:46:56 10° ENE visible
30 Nov - 18:18:37 10° SW 18:24:52 82° SE 18:30:39 10° NE visible
30 Nov - 20:02:47 10° W 20:08:36 44° NNW 20:13:56 10° NE visible
30 Nov - 21:47:45 10° WNW 21:53:01 33° N 21:57:51 10° ENE visible
30 Nov - 23:31:57 10° NW 23:37:24 47° NNE 23:42:19 10° E night (unlit)
01 Dec - 01:15:29 10° NW 01:20:54 65° SW 01:25:44 10° SSE night (unlit)
01 Dec - 03:00:02 10° WNW 03:03:01 15° WSW 03:05:50 10° SW night (unlit)
01 Dec - 16:03:55 10° SSE 16:08:14 20° ESE 16:12:23 10° ENE daylight
01 Dec - 17:44:31 10° SSW 17:50:42 67° SE 17:56:27 10° NE visible
01 Dec - 19:28:19 10° WSW 19:34:16 50° NNW 19:39:43 10° NE visible
01 Dec - 21:13:17 10° WNW 21:18:35 33° N 21:23:27 10° ENE visible
01 Dec - 22:57:40 10° NW 23:03:03 41° NNE 23:07:54 10° E visible
02 Dec - 00:41:15 10° NW 00:46:46 82° SW 00:51:40 10° SE night (unlit)
02 Dec - 02:25:19 10° WNW 02:29:09 21° WSW 02:32:44 10° SSW night (unlit)
02 Dec - 15:31:00 10° SE 15:34:22 15° ESE 15:37:37 10° ENE daylight
02 Dec - 17:10:32 10° SSW 17:16:35 54° SE 17:22:13 10° NE visible
02 Dec - 18:53:53 10° WSW 18:59:56 57° NNW 19:05:31 10° NE visible
02 Dec - 20:38:47 10° WNW 20:44:10 34° N 20:49:06 10° NE visible
02 Dec - 22:23:22 10° NW 22:28:40 37° NNE 22:33:28 10° E visible
03 Dec - 00:07:03 10° NW 00:12:35 81° NE 00:17:31 10° SE night (unlit)
03 Dec - 01:50:50 10° WNW 01:55:15 27° WSW 01:59:18 10° S night (unlit)
03 Dec - 14:58:54 10° ESE 15:00:31 11° ESE 15:02:08 10° E daylight
03 Dec - 16:36:41 10° S 16:42:31 43° ESE 16:47:58 10° NE visible
03 Dec - 18:19:31 10° WSW 18:25:40 68° NW 18:31:19 10° NE visible
03 Dec - 20:04:16 10° W 20:09:45 36° NNW 20:14:47 10° NE visible
03 Dec - 21:49:02 10° NW 21:54:16 35° NNE 21:59:02 10° ENE visible
03 Dec - 23:32:49 10° NW 23:38:21 67° NE 23:43:17 10° ESE night (unlit)
04 Dec - 01:16:27 10° NW 01:21:17 36° WSW 01:25:40 10° S night (unlit)
04 Dec - 16:02:58 10° S 16:08:28 34° ESE 16:13:40 10° NE daylight
04 Dec - 17:45:13 10° SW 17:51:25 80° NW 17:57:08 10° NE visible
04 Dec - 19:29:45 10° W 19:35:21 39° NNW 19:40:29 10° NE visible
04 Dec - 21:14:38 10° WNW 21:19:51 33° N 21:24:35 10° ENE visible
04 Dec - 22:58:36 10° NW 23:04:04 56° NNE 23:08:58 10° ESE visible
05 Dec - 00:42:08 10° NW 00:47:16 47° WSW 00:51:53 10° SSE night (unlit)
05 Dec - 02:28:45 10° W 02:29:04 10° W 02:29:22 10° WSW night (unlit)
05 Dec - 15:29:26 10° SSE 15:34:30 27° ESE 15:39:17 10° ENE daylight
05 Dec - 17:11:01 10° SW 17:17:13 85° SE 17:22:56 10° NE visible
05 Dec - 18:55:15 10° W 19:00:58 43° NNW 19:06:14 10° NE visible
05 Dec - 20:40:13 10° WNW 20:45:25 32° N 20:50:10 10° ENE visible
05 Dec - 22:24:21 10° NW 22:29:46 47° NNE 22:34:37 10° ESE visible
06 Dec - 00:07:53 10° NW 00:13:12 61° SW 00:17:57 10° SSE night (unlit)
06 Dec - 01:52:37 10° WNW 01:55:16 14° WSW 01:57:47 10° SW night (unlit)
06 Dec - 14:56:07 10° SSE 15:00:32 21° ESE 15:04:46 10° ENE daylight
06 Dec - 16:36:54 10° SSW 16:43:04 70° SE 16:48:45 10° NE visible
06 Dec - 18:20:46 10° WSW 18:26:38 48° NNW 18:32:00 10° NE visible
06 Dec - 20:05:45 10° WNW 20:10:59 32° N 20:15:46 10° ENE visible
06 Dec - 21:50:05 10° NW 21:55:24 42° NNE 22:00:13 10° E visible
06 Dec - 23:33:39 10° NW 23:39:05 78° SW 23:43:55 10° SE night (unlit)
07 Dec - 01:17:48 10° WNW 01:21:25 19° WSW 01:24:47 10° SSW night (unlit)
07 Dec - 14:23:07 10° SE 14:26:39 16° ESE 14:30:04 10° ENE daylight
07 Dec - 16:02:54 10° SSW 16:08:55 56° SE 16:14:32 10° NE daylight
07 Dec - 17:46:20 10° WSW 17:52:19 55° NNW 17:57:48 10° NE visible
07 Dec - 19:31:16 10° WNW 19:36:33 33° N 19:41:24 10° ENE visible
07 Dec - 21:15:47 10° NW 21:21:02 38° NNE 21:25:47 10° E visible
07 Dec - 22:59:25 10° NW 23:04:54 84° NE 23:09:47 10° SE visible
08 Dec - 00:43:16 10° WNW 00:47:30 25° WSW 00:51:25 10° SSW night (unlit)
08 Dec - 13:50:47 10° ESE 13:52:48 12° ESE 13:54:47 10° E daylight
08 Dec - 15:29:01 10° SSW 15:34:51 45° ESE 15:40:17 10° NE daylight
08 Dec - 17:11:57 10° WSW 17:18:03 65° NW 17:23:37 10° NE visible
08 Dec - 18:56:45 10° WNW 19:02:08 35° NNW 19:07:04 10° NE visible
08 Dec - 20:41:27 10° NW 20:46:38 35° NNE 20:51:20 10° ENE visible
08 Dec - 22:25:13 10° NW 22:30:41 69° NE 22:35:34 10° ESE visible
09 Dec - 00:08:52 10° NW 00:13:33 33° WSW 00:17:50 10° S night (unlit)
09 Dec - 14:55:16 10° S 15:00:48 35° ESE 15:06:00 10° NE daylight
09 Dec - 16:37:38 10° SW 16:43:47 77° NW 16:49:25 10° NE visible
09 Dec - 18:22:14 10° W 18:27:44 38° NNW 18:32:47 10° NE visible
09 Dec - 20:07:05 10° WNW 20:12:13 33° N 20:16:54 10° ENE visible
09 Dec - 21:50:59 10° NW 21:56:24 57° NNE 22:01:15 10° ESE visible
09 Dec - 23:34:33 10° NW 23:39:33 44° WSW 23:44:04 10° SSE night (unlit)
